STARLINK-35470, 66430

Orbit data source: Space-Track

STARLINK-35470, 66430 is a payload satellite owned by SpaceX/Seattle (US) in LEO that was launched on Tue, 11 Nov 2025 UTC via an FALCON 9 launch vehicle from the Air Force Eastern Test Range (AFETR). Payload-class satellites include a variety of spacecraft equipped with specific instruments for various scientific and technological missions. These include communications satellites like Starlink; space stations such as the ISS; scientific satellites like the Hubble; Earth observation satellites from companies like Planet Labs, Umbra, and HawkEye 360; GPS; miniature CubeSats for education and research; and military/defense satellites.

Loading next visibility...
Identifier
66430, 2025-259J
Orbit
LEO
Country
Flag of USUS
Related business
Manufacturer
SpaceX/Seattle
Mission
Operational Commercial Communications
Bus & Motor
STARLINK V2MO, Unknown motor
Mass
575 kg wet, ~530 kg dry
Launch date (UTC)
2025-11-11 (7 months ago)
Launch vehicle
FALCON 9
Launch site
Air Force Eastern Test Range (AFETR)
Object type
Payload
Rocket body
Debris
Shape & HBR
Box + 2 Pan, 17.7 m
Radar Cross Section
36.964 m², Large (>1 m²)

Expand to show TLE details & history
Last TLE update: 14 hours ago

TLE from 14 hours ago
0 STARLINK-35470
1 66430U 25259J   26150.09686021  .00030807  00000-0  11240-2 0  9996
2 66430  42.9984 174.4136 0001262 253.0519 107.0195 15.27590311 31943
Epoch: 2026-05-30T02:19Z
TLE epoch observation values (Epoch: 2026-05-30T02:19:28.722Z)
Latitude
0.00004°
Longitude
-108.07382°
Altitude
483.047 km
Speed
7.626 km/s
True Right ascension
11h 37m 39s
True Declination
0° 00' 00"
Sunlit
Object was in daylight at epoch
Visualization orbit readout
Latitude
Unknown
Longitude
Unknown
Altitude
Unknown
Speed
Unknown
Apparent Right ascension
Unknown
Apparent Declination
Unknown
Sunlit
N/A
Visualization observer readout
Local Sidereal Time
02:01:14
Azimuth
Unknown
Elevation
Unknown
Doppler factor
Unknown
Orbital elements
Apogee altitude
485.83 km
Perigee altitude
484.098 km
Semi-major axis
6,863.101 km
Eccentricity
0.00013
Inclination
42.9984°
RAAN
174.4136°
Arg. of periapsis
253.0519°
True anomaly
107.03333°
Mean anomaly
107.0195°
Eccentric anomaly
107.02641°
Mean motion
3.81736 °/min
Orbital period
94.31 mins
BSTAR
0.001124
Loading maneuver chart data...
Computing Atmospheric mass density...
Loading historical data...
Loading historical data...
Loading historical data...
Loading historical data...
Loading historical data...
Loading historical data...
Loading historical data...

Documentation

Showing up to 5 results
|